When you browse on this site, cookies collect data to enhance your experience and personalize the content and advertising you see.
Visit our Privacy Policy to learn more. By continuing to use the site, you agree to this use of cookies and data.
  • In Czech Republic
  • List of Countries
  • For 7 days
  • Water Temperature
  • Weather Map
  • Weather Widgets
  • user-avatar
    Login

    Hourly Weather Cottbus

    Today, 20 October, Sunday

    Time Temperature Precipitation Wind Pressure Humidity
    00:00 +12°C° 0 mm 3 mps 752 mmHg 87%
    01:00 +12°C° 0 mm 3 mps 752 mmHg 87%
    02:00 +13°C° 0 mm 2 mps 752 mmHg 87%
    03:00 +13°C° 0 mm 2 mps 752 mmHg 87%
    04:00 +13°C° 0 mm 2 mps 752 mmHg 87%
    05:00 +12°C° 0 mm 2 mps 752 mmHg 87%
    06:00 +12°C° 0 mm 2 mps 752 mmHg 87%
    07:00 +12°C° 0 mm 1 mps 752 mmHg 87%
    08:00 +14°C° 0 mm 2 mps 752 mmHg 80%
    09:00 +16°C° 0 mm 3 mps 752 mmHg 74%
    10:00 +18°C° 0 mm 4 mps 753 mmHg 68%
    11:00 +19°C° 0 mm 4 mps 753 mmHg 65%
    12:00 +20°C° 0 mm 3 mps 752 mmHg 62%
    13:00 +21°C° 0 mm 3 mps 752 mmHg 59%
    14:00 +21°C° 0 mm 3 mps 752 mmHg 62%
    15:00 +20°C° 0 mm 3 mps 752 mmHg 66%
    16:00 +20°C° 0 mm 2 mps 752 mmHg 69%
    17:00 +18°C° 0 mm 2 mps 752 mmHg 74%
    18:00 +17°C° 0 mm 2 mps 752 mmHg 79%
    19:00 +15°C° 0 mm 2 mps 752 mmHg 84%
    20:00 +15°C° 0 mm 2 mps 752 mmHg 86%
    21:00 +14°C° 0 mm 2 mps 753 mmHg 88%
    22:00 +14°C° 0 mm 1 mps 753 mmHg 89%
    23:00 +14°C° 0 mm 1 mps 753 mmHg 90%

    Tomorrow, 21 October, Monday

    Time Temperature Precipitation Wind Pressure Humidity
    00:00 +14°C° 0 mm 1 mps 753 mmHg 91%
    01:00 +14°C° 0 mm 1 mps 753 mmHg 91%
    02:00 +13°C° 0 mm 1 mps 753 mmHg 92%
    03:00 +13°C° 0 mm 1 mps 753 mmHg 92%
    04:00 +13°C° 0 mm 1 mps 753 mmHg 93%
    05:00 +13°C° 0 mm 1 mps 754 mmHg 93%
    06:00 +12°C° 0 mm 1 mps 754 mmHg 93%
    07:00 +12°C° 0 mm 1 mps 754 mmHg 93%
    08:00 +14°C° 0 mm 1 mps 755 mmHg 86%
    09:00 +16°C° 0 mm 1 mps 755 mmHg 79%
    10:00 +18°C° 0 mm 1 mps 755 mmHg 72%
    11:00 +20°C° 0 mm 1 mps 756 mmHg 68%
    12:00 +21°C° 0 mm 1 mps 756 mmHg 64%
    13:00 +22°C° 0 mm 1 mps 756 mmHg 60%
    14:00 +21°C° 0 mm 1 mps 756 mmHg 64%
    15:00 +21°C° 0 mm 1 mps 756 mmHg 67%
    16:00 +20°C° 0 mm 1 mps 757 mmHg 71%
    17:00 +19°C° 0 mm 1 mps 757 mmHg 76%
    18:00 +16°C° 0 mm 0 mps 757 mmHg 81%
    19:00 +15°C° 0 mm 0 mps 758 mmHg 86%
    20:00 +14°C° 0 mm 0 mps 758 mmHg 87%
    21:00 +14°C° 0 mm 0 mps 758 mmHg 88%
    22:00 +14°C° 0 mm 0 mps 759 mmHg 89%
    23:00 +14°C° 0 mm 1 mps 759 mmHg 90%

    Day after tomorrow, 22 October, Tuesday

    Time Temperature Precipitation Wind Pressure Humidity
    00:00 +14°C° 0 mm 1 mps 759 mmHg 92%
    01:00 +14°C° 0 mm 2 mps 759 mmHg 93%
    02:00 +14°C° 0 mm 2 mps 759 mmHg 93%
    03:00 +14°C° 0 mm 1 mps 760 mmHg 94%
    04:00 +13°C° 0 mm 1 mps 760 mmHg 94%
    05:00 +13°C° 0 mm 1 mps 760 mmHg 94%
    06:00 +13°C° 0 mm 1 mps 760 mmHg 94%
    07:00 +13°C° 0 mm 1 mps 760 mmHg 93%
    08:00 +14°C° 0 mm 1 mps 761 mmHg 88%
    09:00 +15°C° 0 mm 1 mps 761 mmHg 82%
    10:00 +17°C° 0 mm 2 mps 761 mmHg 76%
    11:00 +18°C° 0 mm 2 mps 761 mmHg 70%
    12:00 +18°C° 0 mm 2 mps 761 mmHg 64%
    13:00 +19°C° 0 mm 2 mps 761 mmHg 58%
    14:00 +19°C° 0 mm 2 mps 761 mmHg 60%
    15:00 +18°C° 0 mm 2 mps 760 mmHg 63%
    16:00 +18°C° 0 mm 2 mps 760 mmHg 65%
    17:00 +16°C° 0 mm 2 mps 760 mmHg 68%
    18:00 +15°C° 0 mm 2 mps 760 mmHg 71%
    19:00 +14°C° 0 mm 1 mps 761 mmHg 75%
    20:00 +13°C° 0 mm 1 mps 761 mmHg 78%
    21:00 +12°C° 0 mm 1 mps 761 mmHg 81%
    22:00 +12°C° 0 mm 1 mps 761 mmHg 83%
    23:00 +12°C° 0 mm 1 mps 761 mmHg 86%

    23 October, Wednesday

    Time Temperature Precipitation Wind Pressure Humidity
    00:00 +11°C° 0 mm 1 mps 761 mmHg 88%
    01:00 +11°C° 0 mm 1 mps 761 mmHg 90%
    02:00 +10°C° 0 mm 1 mps 760 mmHg 91%
    03:00 +10°C° 0 mm 1 mps 760 mmHg 91%
    04:00 +10°C° 0 mm 1 mps 760 mmHg 92%
    05:00 +9°C° 0 mm 0 mps 760 mmHg 92%
    06:00 +9°C° 0 mm 0 mps 760 mmHg 93%
    07:00 +8°C° 0 mm 0 mps 760 mmHg 93%
    08:00 +10°C° 0 mm 0 mps 760 mmHg 85%
    09:00 +12°C° 0 mm 0 mps 760 mmHg 78%
    10:00 +14°C° 0 mm 1 mps 760 mmHg 71%
    11:00 +15°C° 0 mm 1 mps 759 mmHg 67%
    12:00 +16°C° 0 mm 1 mps 759 mmHg 64%
    13:00 +18°C° 0 mm 1 mps 759 mmHg 60%
    14:00 +18°C° 0 mm 1 mps 758 mmHg 63%
    15:00 +16°C° 0 mm 1 mps 758 mmHg 66%
    16:00 +16°C° 0 mm 1 mps 757 mmHg 69%
    17:00 +15°C° 0 mm 2 mps 757 mmHg 74%
    18:00 +14°C° 0 mm 2 mps 757 mmHg 78%
    19:00 +13°C° 0 mm 2 mps 757 mmHg 83%
    20:00 +12°C° 0 mm 2 mps 757 mmHg 85%
    21:00 +12°C° 0 mm 2 mps 757 mmHg 86%
    22:00 +12°C° 0 mm 2 mps 757 mmHg 88%
    23:00 +12°C° 0 mm 2 mps 756 mmHg 90%

    24 October, Thursday

    Time Temperature Precipitation Wind Pressure Humidity
    00:00 +12°C° 0 mm 2 mps 756 mmHg 91%
    01:00 +10°C° 0 mm 2 mps 756 mmHg 93%
    02:00 +10°C° 0 mm 2 mps 756 mmHg 93%
    03:00 +10°C° 0 mm 2 mps 755 mmHg 94%
    04:00 +10°C° 0 mm 2 mps 755 mmHg 94%
    05:00 +10°C° 0 mm 2 mps 755 mmHg 94%
    06:00 +10°C° 0 mm 2 mps 755 mmHg 94%
    07:00 +10°C° 0 mm 2 mps 754 mmHg 94%
    08:00 +13°C° 0 mm 2 mps 754 mmHg 86%
    09:00 +15°C° 0 mm 2 mps 754 mmHg 79%
    10:00 +17°C° 0 mm 2 mps 754 mmHg 72%
    11:00 +18°C° 0 mm 2 mps 754 mmHg 68%
    12:00 +19°C° 0 mm 2 mps 754 mmHg 64%
    13:00 +20°C° 0 mm 2 mps 754 mmHg 60%
    14:00 +20°C° 0 mm 2 mps 753 mmHg 63%
    15:00 +19°C° 0 mm 2 mps 753 mmHg 66%
    16:00 +19°C° 0 mm 2 mps 753 mmHg 70%
    17:00 +17°C° 0 mm 2 mps 753 mmHg 75%
    18:00 +16°C° 0 mm 2 mps 753 mmHg 80%
    19:00 +15°C° 0 mm 2 mps 753 mmHg 85%
    20:00 +14°C° 0 mm 2 mps 753 mmHg 86%
    21:00 +14°C° 0 mm 2 mps 753 mmHg 87%
    22:00 +14°C° 0 mm 2 mps 753 mmHg 88%
    23:00 +13°C° 0 mm 2 mps 753 mmHg 89%

    25 October, Friday

    Time Temperature Precipitation Wind Pressure Humidity
    00:00 +13°C° 0 mm 2 mps 753 mmHg 90%
    01:00 +13°C° 0 mm 2 mps 753 mmHg 91%
    02:00 +12°C° 0 mm 2 mps 753 mmHg 92%
    03:00 +12°C° 0 mm 2 mps 753 mmHg 92%
    04:00 +12°C° 0 mm 2 mps 753 mmHg 92%
    05:00 +11°C° 0 mm 3 mps 753 mmHg 93%
    06:00 +11°C° 0 mm 3 mps 754 mmHg 94%
    07:00 +11°C° 0 mm 3 mps 754 mmHg 94%
    08:00 +12°C° 0 mm 3 mps 754 mmHg 89%
    09:00 +14°C° 0 mm 3 mps 755 mmHg 85%
    10:00 +16°C° 0 mm 3 mps 755 mmHg 80%
    11:00 +17°C° 0 mm 3 mps 756 mmHg 76%
    12:00 +18°C° 0 mm 3 mps 756 mmHg 73%
    13:00 +19°C° 0 mm 3 mps 756 mmHg 70%
    14:00 +18°C° 0 mm 3 mps 756 mmHg 73%
    15:00 +18°C° 0 mm 3 mps 756 mmHg 75%
    16:00 +17°C° 0 mm 3 mps 756 mmHg 78%
    17:00 +16°C° 0 mm 3 mps 757 mmHg 82%
    18:00 +15°C° 0 mm 2 mps 757 mmHg 87%
    19:00 +14°C° 0 mm 2 mps 758 mmHg 92%
    20:00 +13°C° 0 mm 1 mps 758 mmHg 92%
    21:00 +13°C° 0 mm 1 mps 759 mmHg 93%
    22:00 +12°C° 0 mm 1 mps 759 mmHg 94%
    23:00 +12°C° 0 mm 1 mps 759 mmHg 94%
    Show more